User: anonymous   Login
Location: Unspecified
(0.0000°N, 0.0000°E)
Time: 08:57:21
(UTC+00:00)
Language:

SKY MEXICO-1 - Orbit

View from above orbital plane
View from above orbital plane
View from above satellite
View from above satellite

Ground track
Ground track

The orbit is defined by the following mean orbital elements,

1 40664U          26144.85515777 +.00000000 +00000-0 +00000-0 0 00005
2 40664   0.0393 113.1161 0002053 322.6663  35.7225  1.00270108    02
Epoch (UTC): 24 May 2026 20:31:25
Eccentricity: 0.0002053
inclination: 0.0393°
perigee height: 35778 km
apogee height: 35796 km
right ascension of ascending node: 113.1161°
argument of perigee: 322.6663°
revolutions per day: 1.00270108
mean anomaly at epoch: 35.7225°

The dashed part of the orbit path shows where the satellite is in the earth's shadow,  

DLR